This is the latest recevied weather packets stored in our database for station/object N2QDK-2. If no packets are shown the sender has not sent any weather packets the latest 10 day(s).
| Time | Temp. | Humidity | Pressure | Rain* | Wind** | Luminosity | Snow |
|---|---|---|---|---|---|---|---|
| 1777835116 | 13.33° C | 42% | 1010.8 hPa | 0 mm | - | - | - |
| 1777834516 | 12.78° C | 45% | 1010.9 hPa | 0 mm | - | - | - |
| 1777833916 | 12.78° C | 46% | 1010.9 hPa | 0 mm | - | - | - |
| 1777833316 | 12.78° C | 54% | 1011.2 hPa | 0 mm | - | - | - |
| 1777832716 | 12.22° C | 57% | 1011.4 hPa | 0 mm | - | - | - |
| 1777832116 | 12.22° C | 53% | 1011.5 hPa | 0 mm | - | - | - |
| 1777831516 | 12.22° C | 54% | 1011.6 hPa | 0 mm | - | - | - |
| 1777830916 | 12.78° C | 55% | 1011.6 hPa | 0 mm | - | - | - |
| 1777830316 | 12.22° C | 53% | 1011.8 hPa | 0 mm | - | - | - |
| 1777829715 | 11.67° C | 53% | 1011.9 hPa | 0 mm | - | - | - |
| 1777829116 | 12.78° C | 50% | 1011.9 hPa | 0 mm | - | - | - |
| 1777828517 | 12.22° C | 52% | 1011.9 hPa | 0 mm | - | - | - |
| 1777827918 | 12.22° C | 48% | 1011.8 hPa | 0 mm | - | - | - |
| 1777827317 | 12.22° C | 51% | 1011.9 hPa | 0 mm | - | - | - |
| 1777826718 | 12.22° C | 50% | 1012.1 hPa | 0 mm | - | - | - |
| 1777826117 | 12.78° C | 48% | 1012.2 hPa | 0 mm | - | - | - |
| 1777825518 | 12.78° C | 50% | 1012.3 hPa | 0 mm | - | - | - |
| 1777824918 | 12.22° C | 47% | 1012.3 hPa | 0 mm | - | - | - |
| 1777824318 | 12.22° C | 49% | 1012.5 hPa | 0 mm | - | - | - |
| 1777823717 | 11.67° C | 49% | 1012.8 hPa | 0 mm | - | - | - |
| 1777823117 | 11.67° C | 52% | 1012.8 hPa | 0 mm | - | - | - |
| 1777822517 | 11.11° C | 50% | 1012.9 hPa | 0 mm | - | - | - |
| 1777821917 | 11.11° C | 50% | 1012.9 hPa | 0 mm | - | - | - |
| 1777821318 | 10.56° C | 50% | 1013.1 hPa | 0 mm | - | - | - |
| 1777820717 | 10.56° C | 51% | 1013.2 hPa | 0 mm | - | - | - |
* Rain latest hour (hover to see other rain measurements)
** Current wind speed in m/s (hover to see current wind gust speed)